This demonstration page uses our WeatherBlox Daily Observations layout. Learn more.

Left ArrowRight Arrow

38.88101, -77.10428

Hourly Observations for May 11, 2020

Temp ( °F °C ) Dew Point ( °F °C ) Humidity (%) Winds ( mph kmh ) Pressure ( in mb ) Visibility ( mi km ) Precip ( " mm )
12:52 am 00:52 Mostly Cloudy 54 12.2 43 6.1 67 67 S 8 13 29.93 1014 10 16.0934 0 0
1:52 am 01:52 Mostly Cloudy 51 10.6 42 5.6 71 71 SSW 8 13 29.91 1013 10 16.0934 0 0
2:52 am 02:52 Partly Cloudy 53 11.7 40 4.4 61 61 W 5 7 29.9 1013 10 16.0934 0 0
3:52 am 03:52 Mostly Cloudy 52 11.1 42 5.6 69 69 W 3 6 29.9 1013 10 16.0934 0 0
4:52 am 04:52 Cloudy 52 11.1 43 6.1 72 72 N 3 6 29.9 1013 10 16.0934 0 0
5:52 am 05:52 Cloudy with Light Rain 51 10.6 45 7.2 80 80 Calm 29.93 1014 10 16.0934 0.02 0.508
6:52 am 06:52 Mostly Cloudy 52 11.1 46 7.8 80 80 WNW 6 9 29.92 1013 10 16.0934 0.001 0.001
7:52 am 07:52 Mostly Cloudy 54 12.2 46 7.8 75 75 WNW 5 7 29.94 1014 10 16.0934 0 0
8:52 am 08:52 Mostly Cloudy 57 13.9 44 6.7 62 62 WNW 12 19 29.94 1014 10 16.0934 0 0
9:52 am 09:52 Mostly Cloudy 57 13.9 35 1.7 44 44 W 15 24 29.95 1014 10 16.0934 0 0
10:52 am 10:52 Mostly Cloudy 57 13.9 35 1.7 44 44 WNW 14 22 29.95 1014 10 16.0934 0 0
11:52 am 11:52 Mostly Cloudy 60 15.6 34 1.1 38 38 WNW 16 26 29.95 1014 10 16.0934 0 0
12:52 pm 12:52 Mostly Cloudy 62 16.7 35 1.7 37 37 WNW 15 24 29.94 1014 10 16.0934 0 0
1:52 pm 13:52 Mostly Cloudy 60 15.6 35 1.7 39 39 W 13 20 29.94 1014 10 16.0934 0 0
2:52 pm 14:52 Mostly Cloudy 61 16.1 35 1.7 38 38 NW 21 33 29.96 1014 10 16.0934 0 0
3:52 pm 15:52 Mostly Cloudy 58 14.4 32 0 38 38 WNW 18 30 29.97 1015 10 16.0934 0 0
4:52 pm 16:52 Mostly Cloudy 58 14.4 31 -0.6 36 36 WNW 25 41 29.98 1015 10 16.0934 0 0
5:52 pm 17:52 Mostly Cloudy 56 13.3 32 0 40 40 WNW 21 33 29.99 1016 10 16.0934 0 0
6:52 pm 18:52 Mostly Cloudy 56 13.3 31 -0.6 39 39 WNW 21 33 30.01 1016 10 16.0934 0 0
7:52 pm 19:52 Mostly Cloudy 53 11.7 32 0 45 45 WNW 18 30 30.04 1017 10 16.0934 0 0
8:52 pm 20:52 Cloudy 51 10.6 32 0 48 48 WNW 14 22 30.08 1019 10 16.0934 0 0
9:52 pm 21:52 Mostly Cloudy 49 9.4 31 -0.6 50 50 WNW 10 17 30.11 1020 10 16.0934 0 0
10:52 pm 22:52 Cloudy 49 9.4 30 -1.1 48 48 WNW 12 19 30.12 1020 10 16.0934 0 0
11:52 pm 23:52 Mostly Cloudy 49 9.4 30 -1.1 48 48 W 15 24 30.11 1020 10 16.0934 0 0

Powered by AerisWeather